Weather History for KVNC - February, 2014

Change the Weather History Date:

Tuesday, February 4, 2014

  Actual Average Record
Temperature  
Mean Temperature 73 °F -  
Max Temperature 80 °F 71 °F 84 °F (1956)
Min Temperature 66 °F 50 °F 31 °F (1958)
Cooling Degree Days 8    
Growing Degree Days 23 (Base 50)    
Moisture  
Dew Point 68 °F    
Average Humidity 90    
Maximum Humidity 100    
Minimum Humidity 70    
Precipitation  
Precipitation 0.00 in - - ()
Sea Level Pressure  
Sea Level Pressure 30.08 in    
Wind  
Wind Speed 5 mph (SE)    
Max Wind Speed 13 mph    
Max Gust Speed -    
Visibility 7 miles    
Events Fog , Rain    
Averages and records for this station are not official NWS values.
T = Trace of Precipitation, MM = Missing Value Source: NWS Daily Summary

Daily Weather History Graph

Daily Weather History Graph

Search for Another Location

Airport or City:

Trip Planner

Search our weather history database for the weather conditions in past years. The results will help you decide how hot, cold, wet, or windy it might be!

Date:

Astronomy

Feb. 04, 2014 Rise Set
Actual Time 7:13 AM EST 6:13 PM EST
Civil Twilight 6:49 AM EST 6:38 PM EST
Nautical Twilight 6:21 AM EST 7:05 PM EST
Astronomical Twilight 5:54 AM EST 7:33 PM EST
Moon 10:24 AM EST (2/4) 11:30 PM EST (2/4)
Length of Visible Light 11h 48m
Length of Day
11h 00m
Waxing Crescent, 29% of the Moon is Illuminated
Feb 4
Waxing Crescent
Feb 6
First Quarter
Feb 14
Full
Feb 22
Last Quarter
Mar 1
New

Hourly Weather History & Observations

Time (EST) Temp. Heat Index Dew Point Humidity Pressure Visibility Wind Dir Wind Speed Gust Speed Precip Events Conditions
12:15 AM 68.0 °F - 68.0 °F 100% 30.10 in 0.2 mi East 3.5 mph - N/A Rain Light Rain
12:35 AM 68.0 °F - 68.0 °F 100% 30.10 in 0.2 mi SE 3.5 mph - N/A Rain Light Rain
12:55 AM 66.2 °F - 66.2 °F 100% 30.10 in 0.2 mi Calm Calm - N/A Fog Fog
1:15 AM 66.2 °F - 66.2 °F 100% 30.10 in 0.2 mi Calm Calm - N/A Fog Fog
1:35 AM 66.2 °F - 66.2 °F 100% 30.10 in 0.2 mi Calm Calm - N/A Fog Fog
1:55 AM 66.2 °F - 66.2 °F 100% 30.09 in 0.2 mi Calm Calm - N/A Fog Fog
2:15 AM 66.2 °F - 66.2 °F 100% 30.09 in 0.2 mi ENE 5.8 mph - N/A Fog Fog
2:35 AM 66.2 °F - 66.2 °F 100% 30.09 in 0.2 mi ENE 5.8 mph - N/A Rain Light Rain
2:55 AM 66.2 °F - 66.2 °F 100% 30.09 in 0.2 mi ENE 5.8 mph - N/A Rain Light Rain
3:15 AM 66.2 °F - 66.2 °F 100% 30.09 in 0.2 mi NE 5.8 mph - N/A Fog Fog
3:35 AM 66.2 °F - 66.2 °F 100% 30.09 in 0.2 mi NE 4.6 mph - N/A Fog Fog
3:55 AM 66.2 °F - 66.2 °F 100% 30.08 in 0.2 mi Calm Calm - N/A Fog Fog
4:15 AM 66.2 °F - 66.2 °F 100% 30.08 in 0.2 mi NNE 3.5 mph - N/A Fog Fog
4:35 AM 66.2 °F - 66.2 °F 100% 30.08 in 0.2 mi NNE 3.5 mph - N/A Fog Fog
4:55 AM 66.2 °F - 66.2 °F 100% 30.09 in 0.2 mi NE 3.5 mph - N/A Fog Fog
5:15 AM 66.2 °F - 66.2 °F 100% 30.09 in 0.2 mi NE 5.8 mph - N/A Fog Fog
5:35 AM 66.2 °F - 66.2 °F 100% 30.09 in 0.8 mi ENE 5.8 mph - N/A   Overcast
5:55 AM 66.2 °F - 66.2 °F 100% 30.09 in 0.5 mi NE 4.6 mph - N/A Fog Fog
6:15 AM 66.2 °F - 66.2 °F 100% 30.10 in 0.5 mi ENE 4.6 mph - N/A Fog Fog
6:35 AM 66.2 °F - 66.2 °F 100% 30.10 in 1.5 mi East 3.5 mph - N/A   Overcast
6:55 AM 66.2 °F - 66.2 °F 100% 30.10 in 2.0 mi NE 6.9 mph - N/A   Mostly Cloudy
7:15 AM 66.2 °F - 66.2 °F 100% 30.11 in 6.0 mi ENE 5.8 mph - N/A   Clear
7:35 AM 66.2 °F - 66.2 °F 100% 30.11 in 6.0 mi ENE 5.8 mph - N/A   Clear
7:55 AM 66.2 °F - 66.2 °F 100% 30.11 in 7.0 mi ENE 6.9 mph - N/A   Partly Cloudy
8:15 AM 66.2 °F - 66.2 °F 100% 30.12 in 7.0 mi ENE 8.1 mph - N/A   Partly Cloudy
8:35 AM 68.0 °F - 68.0 °F 100% 30.12 in 9.0 mi East 8.1 mph - N/A   Mostly Cloudy
8:55 AM 69.8 °F - 69.8 °F 100% 30.12 in 9.0 mi ENE 8.1 mph - N/A   Scattered Clouds
9:15 AM 71.6 °F - 71.6 °F 100% 30.12 in 10.0 mi ENE 8.1 mph - N/A   Clear
9:35 AM 73.4 °F - 68.0 °F 83% 30.13 in 10.0 mi East 10.4 mph - N/A   Clear
9:55 AM 75.2 °F - 68.0 °F 78% 30.13 in 10.0 mi East 10.4 mph - N/A   Partly Cloudy
10:15 AM 77.0 °F - 69.8 °F 78% 30.13 in 10.0 mi SE 8.1 mph - N/A   Unknown
10:35 AM 77.0 °F - 69.8 °F 78% 30.13 in 10.0 mi ESE 10.4 mph - N/A   Unknown
10:55 AM 77.0 °F - 71.6 °F 83% 30.12 in 10.0 mi SE 12.7 mph - N/A   Mostly Cloudy
11:15 AM 78.8 °F - 71.6 °F 78% 30.12 in 10.0 mi SSE 8.1 mph - N/A   Mostly Cloudy
11:35 AM 80.6 °F 83.9 °F 69.8 °F 70% 30.11 in 10.0 mi South 11.5 mph - N/A   Scattered Clouds
11:55 AM 77.0 °F - 71.6 °F 83% 30.10 in 10.0 mi South 6.9 mph - N/A   Mostly Cloudy
12:15 PM 77.0 °F - 71.6 °F 83% 30.10 in 10.0 mi SSW 10.4 mph - N/A   Scattered Clouds
12:35 PM 77.0 °F - 71.6 °F 83% 30.09 in 10.0 mi SSW 9.2 mph - N/A   Clear
12:55 PM 78.8 °F - 71.6 °F 78% 30.08 in 10.0 mi SSW 10.4 mph - N/A   Clear
1:15 PM 78.8 °F - 71.6 °F 78% 30.07 in 10.0 mi SSW 9.2 mph - N/A   Clear
1:35 PM 77.0 °F - 71.6 °F 83% 30.06 in 10.0 mi SSW 10.4 mph - N/A   Clear
1:55 PM 77.0 °F - 71.6 °F 83% 30.05 in 10.0 mi SSW 8.1 mph - N/A   Clear
2:15 PM 78.8 °F - 71.6 °F 78% 30.04 in 9.0 mi South 9.2 mph - N/A   Clear
2:35 PM 78.8 °F - 71.6 °F 78% 30.04 in 10.0 mi SSW 8.1 mph - N/A   Clear
2:55 PM 78.8 °F - 71.6 °F 78% 30.04 in 9.0 mi South 10.4 mph - N/A   Clear
3:15 PM 77.0 °F - 69.8 °F 78% 30.03 in 10.0 mi SSW 10.4 mph - N/A   Clear
3:35 PM 77.0 °F - 71.6 °F 83% 30.04 in 10.0 mi SSW 9.2 mph - N/A   Clear
3:55 PM 77.0 °F - 69.8 °F 78% 30.03 in 10.0 mi South 9.2 mph - N/A   Clear
4:15 PM 77.0 °F - 68.0 °F 74% 30.03 in 9.0 mi South 8.1 mph - N/A   Clear
4:35 PM 77.0 °F - 68.0 °F 74% 30.03 in 10.0 mi South 11.5 mph - N/A   Clear
4:55 PM 77.0 °F - 68.0 °F 74% 30.03 in 10.0 mi South 9.2 mph - N/A   Clear
5:15 PM 75.2 °F - 68.0 °F 78% 30.03 in 10.0 mi South 9.2 mph - N/A   Clear
5:35 PM 75.2 °F - 68.0 °F 78% 30.04 in 10.0 mi South 8.1 mph - N/A   Clear
5:55 PM 73.4 °F - 68.0 °F 83% 30.04 in 10.0 mi South 6.9 mph - N/A   Clear
6:15 PM 73.4 °F - 68.0 °F 83% 30.04 in 10.0 mi South 6.9 mph - N/A   Clear
6:35 PM 73.4 °F - 68.0 °F 83% 30.04 in 10.0 mi South 6.9 mph - N/A   Clear
7:15 PM 71.6 °F - 68.0 °F 88% 30.04 in 10.0 mi SSE 5.8 mph - N/A   Clear
7:35 PM 71.6 °F - 68.0 °F 88% 30.04 in 10.0 mi SE 4.6 mph - N/A   Clear
7:55 PM 71.6 °F - 68.0 °F 88% 30.05 in 10.0 mi SSE 5.8 mph - N/A   Clear
8:15 PM 73.4 °F - 68.0 °F 83% 30.05 in 10.0 mi SSE 6.9 mph - N/A   Clear
8:35 PM 71.6 °F - 68.0 °F 88% 30.06 in 10.0 mi SSE 6.9 mph - N/A   Clear
8:55 PM 71.6 °F - 68.0 °F 88% 30.06 in 10.0 mi SSE 8.1 mph - N/A   Clear
9:15 PM 71.6 °F - 68.0 °F 88% 30.07 in 10.0 mi South 8.1 mph - N/A   Clear
9:35 PM 71.6 °F - 68.0 °F 88% 30.07 in 10.0 mi South 4.6 mph - N/A   Clear
9:55 PM 71.6 °F - 68.0 °F 88% 30.08 in 10.0 mi South 4.6 mph - N/A   Clear
10:15 PM 68.0 °F - 68.0 °F 100% 30.07 in 10.0 mi Calm Calm - N/A   Clear
10:35 PM 68.0 °F - 68.0 °F 100% 30.08 in 10.0 mi Calm Calm - N/A   Clear
10:55 PM 68.0 °F - 68.0 °F 100% 30.09 in 10.0 mi Calm Calm - N/A   Clear
11:15 PM 68.0 °F - 68.0 °F 100% 30.09 in 10.0 mi ENE 3.5 mph - N/A   Clear
11:35 PM 68.0 °F - 68.0 °F 100% 30.08 in 10.0 mi East 5.8 mph - N/A   Clear
11:55 PM 68.0 °F - 68.0 °F 100% 30.07 in 10.0 mi East 5.8 mph - N/A   Mostly Cloudy